Tracking 20623 objects as of 2-Apr-2020
HD Live streaming from Space Station
objects crossing your sky now

FAST

Track FAST now!
10-day predictions
FAST is classified as:


NORAD ID: 24285
Int'l Code: 1996-049A
Perigee: 353.4 km
Apogee: 3,438.6 km
Inclination: 83.0 °
Period: 124.7 minutes
Semi major axis: 8266 km
RCS: 1.3393 m2 (large)
Launch date: August 21, 1996
Source: United States (US)
Launch site: AIR FORCE WESTERN TEST RANGE (AFWTR)

Designed to study Earth's aurora.
aabbcc
Your satellite tracking list
Your tracking list is empty




NASA's NSSDC Master Catalog

Two Line Element Set (TLE):
1 24285U 96049A   20093.21979960 +.00000637 +00000-0 +48579-4 0  9999
2 24285 082.9626 182.0589 1865920 030.2790 339.3888 11.54997178968547
Source of the keplerian elements: AFSPC